Weather History for Palmdale, CA

Change the Weather History Date:

Sunday, October 21, 2012

  Actual Average Record
Temperature  
Mean Temperature 65 °F 61 °F  
Max Temperature 72 °F 77 °F 93 °F (2003)
Min Temperature 57 °F 46 °F 26 °F (1949)
Degree Days  
Heating Degree Days 0 4  
Month to date heating degree days 23 54  
Since 1 July heating degree days 23 66  
Cooling Degree Days 0 1  
Month to date cooling degree days 118 53  
Year to date cooling degree days 2314 1810  
Growing Degree Days 14 (Base 50)    
Moisture  
Dew Point 49 °F    
Average Humidity 59    
Maximum Humidity 80    
Minimum Humidity 38    
Precipitation  
Precipitation 0.00 in 0.02 in 0.13 in (1957)
Month to date precipitation 0.00 0.36  
Year to date precipitation 1.79 6.21  
Since 1 July precipitation T 0.89  
Snow  
Snow 0.00 in - 0.00 in (1973)
Month to date snowfall 0.0  
Since 1 July snowfall 0.0  
Since 1 September snowfall 0.0  
Snow Depth 0.00 in    
Sea Level Pressure  
Sea Level Pressure 29.81 in    
Wind  
Wind Speed 18 mph (SW)    
Max Wind Speed 26 mph    
Max Gust Speed 32 mph    
Visibility 10 miles    
Events      
T = Trace of Precipitation, MM = Missing Value Source: NWS Daily Summary

Daily Weather History Graph

Daily Weather History Graph

Search for Another Location

Airport:

Trip Planner

Search our weather history database for the weather conditions in past years. The results will help you decide how hot, cold, wet, or windy it might be!

Date:

Astronomy

Oct. 21, 2012 Rise Set
Actual Time 7:03 AM PDT 6:09 PM PDT
Civil Twilight 6:37 AM PDT 6:35 PM PDT
Nautical Twilight 6:08 AM PDT 7:04 PM PDT
Astronomical Twilight 5:39 AM PDT 7:33 PM PDT
Moon 1:22 PM PDT (10/21) No Moon Set
Length of Visible Light 11h 57m
Length of Day
11h 06m
Waxing Crescent, 46% of the Moon is Illuminated
Oct 21
Waxing Crescent
Oct 21
First Quarter
Oct 29
Full
Nov 6
Last Quarter
Nov 13
New

Hourly Weather History & Observations

Time (PDT) Temp. Dew Point Humidity Pressure Visibility Wind Dir Wind Speed Gust Speed Precip Events Conditions
12:53 AM 60.1 °F 52.0 °F 75% 29.77 in 10.0 mi SW 19.6 mph - N/A   Clear
1:53 AM 61.0 °F 51.1 °F 70% 29.77 in 10.0 mi SW 23.0 mph - N/A   Clear
2:53 AM 60.1 °F 51.1 °F 72% 29.78 in 10.0 mi SW 13.8 mph - N/A   Clear
3:53 AM 59.0 °F 51.1 °F 75% 29.78 in 10.0 mi SW 15.0 mph - N/A   Clear
4:53 AM 59.0 °F 51.1 °F 75% 29.79 in 10.0 mi SW 12.7 mph - N/A   Clear
5:53 AM 59.0 °F 51.1 °F 75% 29.80 in 10.0 mi SW 16.1 mph - N/A   Clear
6:53 AM 57.9 °F 51.1 °F 78% 29.82 in 10.0 mi SW 13.8 mph - N/A   Clear
7:53 AM 60.1 °F 50.0 °F 69% 29.83 in 10.0 mi WSW 15.0 mph - N/A   Clear
8:53 AM 63.0 °F 50.0 °F 63% 29.85 in 10.0 mi SW 17.3 mph 23.0 mph N/A   Clear
9:53 AM 64.9 °F 48.9 °F 56% 29.85 in 10.0 mi SW 21.9 mph - N/A   Clear
10:53 AM 66.9 °F 48.0 °F 51% 29.84 in 10.0 mi SW 20.7 mph 26.5 mph N/A   Clear
11:53 AM 69.1 °F 46.0 °F 44% 29.84 in 10.0 mi SW 19.6 mph 27.6 mph N/A   Clear
12:53 PM 70.0 °F 45.0 °F 41% 29.82 in 10.0 mi WSW 23.0 mph 29.9 mph N/A   Clear
1:53 PM 71.1 °F 44.1 °F 38% 29.80 in 10.0 mi SW 18.4 mph 25.3 mph N/A   Clear
2:53 PM 71.1 °F 46.0 °F 41% 29.78 in 10.0 mi WSW 20.7 mph - N/A   Clear
3:53 PM 69.1 °F 48.0 °F 47% 29.79 in 10.0 mi SW 24.2 mph 32.2 mph N/A   Clear
4:53 PM 66.9 °F 48.9 °F 52% 29.80 in 10.0 mi SW 23.0 mph - N/A   Clear
5:53 PM 64.0 °F 50.0 °F 60% 29.81 in 10.0 mi SW 17.3 mph - N/A   Clear
6:53 PM 62.1 °F 51.1 °F 67% 29.83 in 10.0 mi WSW 15.0 mph - N/A   Clear
7:53 PM 61.0 °F 51.1 °F 70% 29.83 in 10.0 mi SW 19.6 mph - N/A   Clear
8:53 PM 60.1 °F 51.1 °F 72% 29.83 in 10.0 mi SW 18.4 mph - N/A   Clear
9:53 PM 59.0 °F 50.0 °F 72% 29.84 in 10.0 mi SW 18.4 mph - N/A   Clear
10:53 PM 57.9 °F 50.0 °F 75% 29.84 in 10.0 mi SW 17.3 mph - N/A   Clear
11:53 PM 57.9 °F 50.0 °F 75% 29.84 in 10.0 mi SSW 15.0 mph 23.0 mph N/A   Clear